www.pogodaiklimat.ru

Погода и климат >> Архив погоды >> Великобритания >> Lerwick


АРХИВ ПОГОДЫ в Lerwick

Время (UTC), дата Ветер
(напр.,м/с)
 
Видим.   Явления Облачность Т
(С)
Тd
(С)
f
(%)
Тe
(С)
Тes
(С)
Комфортность P
(гПа)
Po
(гПа)
Тmin
(С)
Tmax
(С)
R
(мм)
R24
(мм)
S
(см)
10 11.12 С 6 50 км 4/1 450 м
[Cb cap Ac trans Ci sp]
+1.9 -1.0 81 -4 -4 тепло 989.4 979.4 4
11 11.12 С 3 45 км 4/3 450 м
[Cb cap Ci sp]
+1.9 -1.1 80 -2 -2 по сезону 990.2 980.1 4
12 11.12 СЗ 5 35 км осадки на расстоянии 9/6 450 м
[Cb cap Ac cuf Ci sp]
+2.7 0.0 82 -2 -2 по сезону 990.9 980.9 0.0 4
13 11.12 З 5 45 км осадки на расстоянии 8/4 450 м
[Cb cap Ac cuf Ci sp]
+2.2 +0.1 86 -3 -3 тепло 991.2 981.2 4
14 11.12 З 5 50 км 3/1 450 м
[Cb cap Ac As Ci sp]
+2.5 +0.3 85 -3 -3 по сезону 991.3 981.3 4
15 11.12 З 6 50 км в посл. час дождь н/о +2.5 +0.9 89 -4 -4 прохладно 991.6 981.6
16 11.12 З 10 7000 м слабый ливневой дождь со снегом 9/6 180 м
[Cb cap Ac cuf]
+1.8 +1.1 95 -6 -6 тепло 991.7 981.7 3
17 11.12 З 4 8000 м слабый ливневой дождь 9/9 420 м
[Cb cap]
+2.4 +1.8 96 -3 -3 по сезону 992.1 982.1 3
18 11.12 З 3 50 км в посл. час ливневой дождь 4/4 420 м
[Cb cap]
+2.3 +0.9 90 -2 -2 по сезону 992.4 982.4 +3.2 1 3
19 11.12 СЗ 2 50 км 1/1 540 м
[Cu Sc]
+1.9 +0.8 92 -2 -2 тепло 993.1 983.0 3
20 11.12 С 3 50 км 3/3 330 м
[Cu med, cong]
+1.0 +0.4 96 -4 -4 по сезону 993.9 983.8 3
21 11.12 СВ 3 25 км в посл. час ливневой снег 8/8 300 м
[Cu Sc]
+2.7 +1.4 91 -2 -2 по сезону 994.4 984.4 3
22 11.12 СВ 5 30 км в посл. час ливневой снег 9/9 420 м
[Cu Sc]
+3.3 +1.7 89 -2 -2 тепло 994.8 984.8 4
23 11.12 СВ 5 50 км 6/6 480 м
[Cu Sc]
+3.3 +1.7 89 -2 -2 по сезону 995.2 985.2
00 12.12 В 5 50 км в посл. час ливневой дождь 4/4 480 м
[Cu Sc]
+3.2 +1.6 89 -2 -2 по сезону 995.7 985.6 0.0 4
01 12.12 СВ 2 25 км 9/9 480 м
[Cu Sc]
+3.1 +0.7 84 0 0 тепло 996.3 986.3 4
02 12.12 С 3 50 км 9/9 540 м
[Cu Sc]
+2.0 +0.1 87 -2 -2 по сезону 996.8 986.7 4
03 12.12 С 4 50 км 9/9 540 м
[Cu Sc]
+1.9 -0.2 86 -3 -3 прохладно 997.3 987.2 4
04 12.12 В 3 50 км в посл. час дождь н/о +2.5 +0.5 87 -1 -1 тепло 997.2 987.2
05 12.12 С 2 50 км 1/1 1350 м
[Sc]
+1.7 -0.3 87 -1 -1 тепло 997.2 987.1
06 12.12 С 3 50 км {ливн. осадки} 3/1 1000 м
[Sc Ac trans]
+1.7 -1.2 81 -3 -3 прохладно 996.9 986.8 +1.0 0.1 4
07 12.12 СЗ 3 50 км 1/1 1350 м
[Sc Ac trans]
+1.3 -1.5 82 -3 -3 тепло 997.3 987.2 4
08 12.12 СЗ 3 50 км 1/1 480 м
[Cu Sc Ac trans]
+1.1 -1.5 83 -3 -3 по сезону 997.4 987.2 4
09 12.12 СЗ 1 50 км 3/1 480 м
[Cu Sc Ac trans]
-1.0 -3.2 85 -3 -3 прохладно 997.4 987.2 4
10 12.12 З 2 50 км 9/1 480 м
[Cu Sc Ac trans Ci fib]
+1.0 -1.2 85 -2 -2 тепло 997.3 987.2
11 12.12 З 3 35 км 9/1 480 м
[Cu Sc Ac As]
+2.7 -0.9 77 -1 -1 по сезону 997.2 987.1
12 12.12 ЮЗ 2 40 км 9/1 480 м
[Cu Sc Ac As]
+2.4 -0.8 79 -1 -1 по сезону 996.8 986.7 4
13 12.12 ЮЗ 2 30 км 9/3 480 м
[Cu Sc Ac As]
+2.4 +0.2 85 -1 -1 тепло 996.2 986.2 4
14 12.12 ЮЗ 2 15 км осадки на расстоянии 9/4 480 м
[Cu Sc Ac As Ci sp]
+2.5 +0.5 87 -1 -1 по сезону 995.8 985.8 4
15 12.12 ЮЗ 2 45 км 9/4 480 м
[Cu Sc Ac As Ci sp]
+2.6 +0.6 87 0 0 по сезону 995.2 985.1 4
16 12.12 ЮЗ 2 35 км н/о +1.6 0.0 89 -2 -2 тепло 994.5 984.4
17 12.12 ЮЗ 2 45 км 9/4 480 м
[Cu Sc Ac As]
+2.6 +0.7 87 0 0 тепло 993.8 983.8 4
18 12.12 Ю 4 35 км 9/4 480 м
[Cu Sc Ac As]
+1.8 +0.1 88 -3 -3 прохладно 993.0 983.0 +3.1 4
19 12.12 Ю 5 45 км 9/9 480 м
[Cu Sc Ac As]
+2.7 +0.3 84 -2 -2 тепло 992.3 982.2 4
20 12.12 Ю 5 45 км 9/9 480 м
[Cu Sc Ac As]
+2.7 +0.3 84 -2 -2 по сезону 992.3 982.2 4
21 12.12 Ю 8
{13}
30 км 6/4 600 м
[Cu Sc Ac As]
+3.9 +1.0 81 -2 -2 по сезону 990.1 980.1 3
22 12.12 Ю 9
{15}
29 км 9/6 750 м
[Sc Ac As]
+4.1 +1.3 82 -2 -2 тепло 988.8 978.9 3
23 12.12 Ю 10
{14}
30 км 10/10 660 м
[Sc]
+4.6 +1.9 83 -2 -2 по сезону 987.4 977.5 3
00 13.12 Ю 10
{15}
13 км слабый дождь 10/10 600 м
[Sc]
+4.6 +2.2 84 -2 -2 по сезону 986.3 976.4 0.0 3
01 13.12 Ю 9
{15}
6000 м слабый дождь 10/10 570 м
[Sc]
+3.4 +2.2 92 -3 -3 тепло 985.4 975.5 3
02 13.12 ЮЗ 8
{13}
12 км в посл. час дождь 10/9 400 м
[Sc Ac As]
+3.4 +2.4 93 -3 -3 по сезону 984.2 974.3 3
03 13.12 ЮЗ 6 30 км {дождь} 10/9 400 м
[Sc Ac As]
+3.3 +2.4 94 -2 -2 по сезону 983.5 973.6 3
04 13.12 ЮЗ 6 29 км в посл. час крупа {ливн. осадки} 9/9 450 м
[Cb cap]
+3.3 +2.5 94 -3 -3 тепло 982.7 972.8 3
05 13.12 З 6
{13}
35 км в посл. час дождь н/о +3.4 +1.1 85 -2 -2 по сезону 981.8 971.9
06 13.12 ЮЗ 8 27 км {ливн. осадки, дождь} 1/1 300 м
[Cb cap]
+3.8 +1.6 86 -3 -3 прохладно 981.2 971.3 +1.2 2 3
07 13.12 ЮЗ 7 19 км 1/1 630 м
[Sc]
+4.0 +1.3 83 -2 -2 тепло 980.4 970.6 3
08 13.12 З 5 24 км в посл. час ливневой дождь 3/3 600 м
[Cu Sc]
+3.5 +1.2 85 -1 -1 по сезону 979.8 970.0 3
09 13.12 Ю 4 15 км {ливн. осадки} 5/3 540 м
[Cu Sc Ci sp]
+2.2 +0.9 91 -3 -3 прохладно 979.2 969.3 3
10 13.12 Ю 5 15 км 9/3 540 м
[Cu Sc Ac trans Ci sp]
+3.2 +1.9 91 -2 -2 тепло 978.5 968.6 3
11 13.12 Ю 5 20 км 9/5 540 м
[Cu Sc Ac As]
+3.7 +1.8 87 -1 -1 по сезону 977.5 967.7 3
12 13.12 Ю 11
{14}
5000 м слабый дождь {ливн. осадки} 10/9 450 м
[Cu Sc Ac As]
+3.4 +2.1 91 -4 -4 прохладно 976.5 966.6 0.2 2
13 13.12 Ю 9
{14}
18 км слабый дождь 10/10 330 м
[Sc]
+3.7 +2.8 94 -3 -3 тепло 975.2 965.4 2
14 13.12 ЮЗ 7 18 км слабый дождь 10/6 450 м
[Sc Ac As]
+3.1 +2.1 93 -3 -3 по сезону 974.3 964.5 2
15 13.12 ЮЗ 8 25 км слабый ливневой дождь 9/6 450 м
[Cu Sc Ac trans]
+2.6 +1.8 94 -4 -4 прохладно 973.8 964.0 1
16 13.12 ЮЗ 5 30 км в посл. час дождь н/о +3.1 +1.8 91 -2 -2 тепло 973.3 963.5
17 13.12 ЮЗ 4 25 км в посл. час ливневой дождь 9/6 540 м
[Cu Sc Ac As]
+3.2 +1.7 90 -2 -2 по сезону 973.0 963.2 1
18 13.12 ЮЗ 7 40 км в посл. час ливневой дождь 9/9 270 м
[Cu Sc Ac As]
+3.1 +2.2 94 -3 -3 прохладно 972.7 962.9 +4.9 3 1
19 13.12 З 5 20 км слабый ливневой дождь 9/9 330 м
[Cu Sc]
+3.0 +2.0 93 -3 -3 тепло 972.7 962.9 1
20 13.12 ЮЗ 7 20 км слабый ливневой дождь 9/9 270 м
[Cu Sc]
+2.8 +1.9 94 -4 -4 по сезону 972.5 962.7 <0.5
21 13.12 ЮЗ 4 27 км слабый ливневой дождь 9/9 270 м
[Cu Sc]
+2.0 +1.4 96 -3 -3 прохладно 972.6 962.8 <0.5
22 13.12 ЮЗ 2 6000 м слабый ливневой дождь 9/9 270 м
[Cu Sc]
+2.3 +1.5 94 -1 -1 тепло 972.6 962.7 0
23 13.12 З 4 30 км в посл. час ливневой дождь 9/9 270 м
[Cu Sc]
+2.2 +1.6 96 -3 -3 по сезону 972.4 962.6 0
00 14.12 З 5 20 км слабый ливневой дождь 9/9 270 м
[Cu Sc]
+2.2 +1.3 94 -3 -3 прохладно 972.4 962.6 6 0
01 14.12 ЮЗ 5 9000 м слабый ливневой дождь 9/9 480 м
[Cu Sc]
+2.7 +1.5 92 -3 -3 тепло 972.0 962.2 0
02 14.12 З 8 50 км в посл. час ливневой дождь 9/8 480 м
[Cu Sc Ac trans]
+3.3 +1.8 90 -3 -3 по сезону 971.9 962.1 0
03 14.12 ЮЗ 8 45 км {ливн. осадки} 9/8 500 м
[Cu Sc Ac trans]
+3.9 +2.3 89 -2 -2 по сезону 972.0 962.3 0
04 14.12 ЮЗ 8 50 км в посл. час дождь н/о +3.8 +2.2 89 -2 -2 тепло 972.0 962.2
05 14.12 ЮЗ 6 35 км 9/6 500 м
[Cu Sc Ac trans]
+3.7 +2.2 90 -2 -2 по сезону 972.1 962.3 0
06 14.12 ЮЗ 5 23 км слабый ливневой дождь 8/8 300 м
[Cu Sc]
+3.1 +1.9 92 -2 -2 по сезону 972.5 962.7 +1.3 7 0
07 14.12 ЮЗ 4 7000 м слабый ливневой дождь 9/9 360 м
[Cu Sc]
+2.9 +2.2 95 -2 -2 тепло 973.1 963.3
08 14.12 Ю 3 18 км в посл. час ливневой дождь 5/3 360 м
[Cu Sc Ac As Ci sp]
+2.5 +1.8 95 -1 -1 тепло 973.8 964.0
09 14.12 ЮЗ 2 18 км в посл. час ливневой дождь 6/6 360 м
[Cb cap]
+2.2 +1.6 96 -1 -1 по сезону 974.9 965.0
10 14.12 ЮЗ 3 35 км 8/3 360 м
[Cb cap Ci sp]
+2.5 +1.7 94 -2 -2 тепло 976.1 966.3
11 14.12 ЮЗ 2 18 км 8/1 360 м
[Cb cap As op Ci sp]
+2.0 +1.1 94 -1 -1 по сезону 977.1 967.2
12 14.12 С 1 35 км {ливн. осадки} 9/3 420 м
[Cb cap As op]
+3.2 +2.1 92 +2 +2 по сезону 978.0 968.2 0.2
13 14.12 С 2 35 км 9/1 540 м
[Cu Sc As op Ci sp]
+2.3 +1.4 94 -1 -1 тепло 978.9 969.0
14 14.12 С 4 50 км 9/1 420 м
[Cb cap As trans]
+3.6 +2.0 89 -1 -1 тепло 979.8 969.9
15 14.12 С 3 50 км 9/3 420 м
[Cb cap Ac As]
+2.5 +1.6 94 -2 -2 по сезону 980.7 970.8
16 14.12 СВ 7 40 км слаб. ливневой дождь н/о +3.7 +2.3 91 -2 -2 тепло 981.9 972.0
17 14.12 С 4 45 км слабый ливневой дождь 9/9 300 м
[Cb cap]
+3.2 +2.4 94 -1 -1 тепло 982.9 973.0
18 14.12 СВ 6 50 км в посл. час ливневой дождь 9/5 300 м
[St As op]
+4.7 +3.3 91 -1 -1 по сезону 984.0 974.1 +4.7 0.8
19 14.12 СВ 7 19 км в посл. час ливневой дождь 9/9 330 м
[Cb cap]
+4.7 +3.6 93 -1 -1 тепло 985.3 975.4
20 14.12 СВ 12-18
{18}
18 км слабый ливневой дождь 10/10 360 м
[Cb cap]
+5.4 +3.0 85 -2 -2 по сезону 986.7 976.8
21 14.12 СВ 11 25 км в посл. час ливневой дождь 10/6 360 м
[Cb cap Ac As]
+5.3 +3.0 85 -1 -1 по сезону 988.2 978.3
22 14.12 СВ 14
{19}
18 км в посл. час ливневой дождь 9/5 540 м
[Cu Sc Ac As]
+5.2 +2.8 84 -2 -2 тепло 989.5 979.6
23 14.12 СВ 13
{20}
30 км в посл. час ливневой дождь 4/1 540 м
[Cu Sc Ac As]
+5.4 +1.6 76 -1 -1 тепло 990.6 980.7
00 15.12 СВ 13-20
{20}
15 км слабый ливневой дождь 9/9 540 м
[Cu Sc]
+4.5 +1.9 83 -3 -3 по сезону 992.1 982.1 1
01 15.12 С 13
{19}
40 км в посл. час ливневой дождь 5/5 540 м
[Cu Sc]
+4.7 +1.9 82 -3 -3 тепло 993.1 983.2
02 15.12 С 8
{15}
30 км 3/3 540 м
[Cu Sc]
+3.3 +1.4 87 -3 -3 по сезону 994.6 984.6
03 15.12 С 7 40 км {ливн. осадки} 3/3 540 м
[Cu Sc]
+2.7 +1.1 89 -4 -4 прохладно 995.6 985.6
04 15.12 С 5 45 км н/о +2.4 +1.0 90 -3 -3 тепло 996.5 986.4
05 15.12 С 7 45 км 1/1 540 м
[Cu Sc]
+2.9 +0.9 87 -3 -3 по сезону 997.4 987.3
06 15.12 С 9 25 км слабый ливневой дождь 9/9 540 м
[Cu Sc]
+2.8 +1.2 89 -4 -4 прохладно 998.3 988.2 +2.2 1
07 15.12 С 6 40 км в посл. час ливневой дождь 3/1 540 м
[Cu Sc Ci sp]
+2.3 +0.7 89 -4 -4 тепло 998.9 988.8
08 15.12 С 6 30 км 8/3 450 м
[Cb cap Ac cuf Ci sp]
+2.3 +0.5 88 -4 -4 по сезону 999.8 989.7
09 15.12 С 7 45 км {ливн. осадки} 5/3 450 м
[Cb cap Ac trans Ci sp]
+2.6 +0.7 87 -4 -4 прохладно 1000.2 990.1
10 15.12 С 8 45 км 5/5 450 м
[Cb cap Ac trans Ci sp]
+2.2 +0.5 89 -5 -5 тепло 1000.9 990.8
11 15.12 СЗ 7
{13}
40 км 3/3 450 м
[Cb cap Ac trans Ci sp]
+2.4 +0.7 89 -4 -4 по сезону 1001.5 991.3
12 15.12 СЗ 8
{13}
35 км слабая крупа {ливн. осадки} 8/8 450 м
[Cb cap]
+2.9 +1.0 87 -4 -4 прохладно 1001.7 991.6 0.2
13 15.12 С 7
{14}
30 км в посл. час крупа {ливн. осадки} 3/3 450 м
[Cb cap Ci sp]
+2.2 +0.4 88 -4 -4 тепло 1001.9 991.7
14 15.12 СЗ 8 20 км 1/1 450 м
[Cb cap]
+2.6 +0.3 85 -4 -4 по сезону 1002.0 991.9
15 15.12 С 9 25 км {ливн. осадки} 4/3 450 м
[Cb cap Ci sp]
+2.2 +0.2 87 -5 -5 прохладно 1002.6 992.5
16 15.12 С 9
{14}
24 км н/о +2.4 -0.2 83 -5 -5 тепло 1003.2 993.1
17 15.12 С 9 25 км 1/1 450 м
[Cb cap]
+2.1 0.0 86 -5 -5 по сезону 1003.9 993.7
18 15.12 СЗ 7-12
{13}
35 км {ливн. осадки} 3/3 450 м
[Cb cap]
+1.9 -0.1 87 -5 -5 прохладно 1004.4 994.3 +3.0 0.4
19 15.12 С 8 30 км 1/1 450 м
[Cb cap]
+1.8 -0.2 87 -5 -5 тепло 1004.9 994.7
20 15.12 С 8 40 км 4/4 1500 м
[Sc]
+1.7 -0.2 87 -5 -5 по сезону 1005.3 995.2
21 15.12 СЗ 7 45 км в посл. час крупа {ливн. осадки} 9/9 450 м
[Cb cap]
+2.1 -1.0 80 -4 -4 прохладно 1005.6 995.4
22 15.12 СЗ 6 40 км в посл. час ливневой дождь 8/8 450 м
[Cb cap]
+2.1 -0.6 82 -4 -4 тепло 1005.7 995.6
23 15.12 СЗ 6
{13}
35 км 9/9 450 м
[Cb cap]
+2.4 -0.8 79 -3 -3 по сезону 1006.1 995.9
00 16.12 СЗ 4 25 км в посл. час ливневой снег 9/9 450 м
[Cb cap]
+2.3 -0.9 79 -3 -3 по сезону 1006.5 996.3 0.0
01 16.12 СЗ 7 40 км в посл. час крупа {ливн. осадки} 5/5 450 м
[Cb cap]
+1.1 -0.3 90 -6 -6 тепло 1006.8 996.5 <0.5
02 16.12 СЗ 5 45 км 5/4 450 м
[Cb cap Ci ing]
+1.1 -0.9 86 -5 -5 по сезону 1007.0 996.8 <0.5
03 16.12 С 5 50 км в посл. час крупа {ливн. осадки} 4/4 450 м
[Cb cap]
+0.6 -0.3 94 -6 -6 холодно 1007.3 997.1 <0.5
04 16.12 СЗ 6 35 км снежные зёрна н/о +0.7 -0.9 89 -6 -6 тепло 1007.5 997.2
05 16.12 СЗ 5 50 км 1/1 450 м
[Cb cap]
+1.3 -0.2 90 -5 -5 по сезону 1007.7 997.5 <0.5
06 16.12 С 8 25 км в посл. час крупа {ливн. осадки} 1/1 300 м
[Cb cap]
+1.1 +0.2 94 -6 -6 холодно 1008.2 997.9 +0.3 0.2 <0.5
07 16.12 С 8 15 км слабый ливневой снег 9/9 450 м
[Cb cap]
+1.1 +0.1 93 -6 -6 тепло 1008.8 998.6 <0.5
08 16.12 СЗ 6 50 км в посл. час ливневой снег 3/3 450 м
[Cb cap]
+1.1 -0.2 91 -5 -5 по сезону 1009.4 999.2 <0.5
09 16.12 СЗ 6 45 км в посл. час ливневой снег 3/3 450 м
[Cb cap]
+1.8 0.0 88 -4 -4 прохладно 1010.1 999.9 <0.5
10 16.12 С 6 50 км 1/1 450 м
[Cb cap]
+1.0 -0.1 92 -5 -5 тепло 1010.9 1000.7 <0.5
11 16.12 С 7 45 км 5/5 450 м
[Cb cap]
+2.2 -0.1 85 -4 -4 по сезону 1011.5 1001.3 <0.5
12 16.12 СЗ 5 35 км {ливн. осадки} 4/4 540 м
[Cu Sc]
+2.4 -0.4 82 -3 -3 прохладно 1012.1 1001.9 0.3 <0.5
13 16.12 С 7 50 км 1/1 450 м
[Cb cap]
+2.0 0.0 87 -4 -4 тепло 1012.4 1002.2 0
14 16.12 СЗ 4 45 км 1/1 450 м
[Cb cap Ci sp]
+1.9 -0.1 87 -3 -3 по сезону 1012.8 1002.6 <0.5
15 16.12 СЗ 4 50 км 3/3 540 м
[Cu Sc]
+1.9 -0.7 83 -3 -3 прохладно 1013.7 1003.4 0
16 16.12 СЗ 4 50 км 1/1 540 м
[Cu Sc]
+1.9 -1.0 81 -3 -3 тепло 1014.1 1003.9 0
17 16.12 СЗ 4 50 км 8/8 540 м
[Cu Sc]
+2.1 -0.8 81 -3 -3 по сезону 1014.6 1004.4 0
18 16.12 З 3 50 км 1/1 540 м
[Cu Sc]
+1.2 -0.4 89 -3 -3 по сезону 1015.0 1004.7 +2.6 0.3 0
19 16.12 З 3 50 км 1/1 1500 м
[Sc]
+1.9 -0.6 83 -2 -2 тепло 1015.5 1005.2 0
20 16.12 СЗ 2 50 км 1/1 1200 м
[Sc]
+2.1 -0.4 84 -1 -1 тепло 1015.6 1005.3 0
21 16.12 З 4 45 км 9/9 1200 м
[Sc]
+1.2 -0.4 89 -4 -4 прохладно 1015.5 1005.2
22 16.12 Ю 1 50 км 4/4 900 м
[Sc]
+1.1 -1.7 82 -1 -1 тепло 1015.2 1004.9 0
23 16.12 Ю 2 50 км 10/3 1000 м
[Sc Ci sp]
-0.1 -2.3 85 -3 -3 по сезону 1015.0 1004.6 0
00 17.12 ЮЗ 2 50 км 4/1 900 м
[Sc As trans]
+0.9 -1.2 86 -2 -2 по сезону 1014.6 1004.3 0
01 17.12 ЮЗ 3 50 км 9/9 1000 м
[Sc Ci sp]
+1.1 -0.2 91 -3 -3 тепло 1014.2 1003.9
02 17.12 ЮЗ 5 50 км в посл. час ливневой дождь 9/8 600 м
[Cu Sc As op]
+2.0 +1.0 93 -4 -4 по сезону 1013.3 1003.1
03 17.12 ЮЗ 5 50 км {ливн. осадки} 9/1 630 м
[Sc As op]
+2.5 +1.3 92 -3 -3 по сезону 1012.2 1002.0 0
04 17.12 Ю 7 50 км 10/1 900 м
[Sc Ac As]
+3.0 +1.9 92 -3 -3 тепло 1010.8 1000.6
05 17.12 Ю 9 50 км 10/10 750 м
[Sc]
+4.1 +2.8 91 -2 -2 по сезону 1009.2 999.1 0
06 17.12 Ю 10 10 км слабый дождь {ливн. осадки} 10/10 900 м
[Sc]
+4.5 +3.6 94 -2 -2 по сезону 1007.7 997.6 -0.5 0.0
07 17.12 Ю 12
{16}
10 км слабый дождь 10/10 900 м
[Sc]
+4.6 +3.9 95 -3 -3 тепло 1006.0 995.9
08 17.12 Ю 14
{19}
10 км слабый дождь 10/10 300 м
[Frnb]
+4.7 +4.3 97 -3 -3 по сезону 1004.4 994.3
09 17.12 Ю 14
{19}
5000 м слабый дождь 10/10 180 м
[Frnb]
+5.4 +5.1 98 -2 -2 по сезону 1003.0 993.0
10 17.12 Ю 13
{19}
5000 м слабый дождь 10/10 150 м
[Frnb]
+5.9 +5.4 97 -1 -1 тепло 1001.5 991.5
11 17.12 Ю 12
{20}
3800 м слабый дождь 10/10 150 м
[Frnb]
+6.1 +5.6 97 -1 -1 тепло 1000.4 990.4
12 17.12 ЮЗ 15
{19}
7000 м слабый дождь 10/10 210 м
[Frnb]
+6.7 +6.0 95 -0 -0 по сезону 999.1 989.2 10
13 17.12 З 9
{20}
11 км в посл. час дождь 10/10 180 м
[St]
+7.5 +6.9 96 +2 +2 тепло 999.1 989.2
14 17.12 СЗ 10-17
{19}
3800 м слабый дождь 10/10 180 м
[Sc]
+5.3 +4.1 92 -1 -1 тепло 1000.5 990.5
15 17.12 СЗ 11
{16}
16 км в посл. час дождь 5/3 1080 м
[Sc Ac trans]
+6.1 +1.7 73 0 0 по сезону 1001.8 991.9
16 17.12 СЗ 11-16
{16}
17 км 4/3 1020 м
[Sc Ac As]
+5.6 +0.2 68 -1 -1 тепло 1003.7 993.6
17 17.12 СЗ 11-16
{17}
20 км в посл. час ливневой дождь 1/1 600 м
[Cu Sc]
+5.4 +0.3 70 -1 -1 тепло 1004.9 994.8
18 17.12 СЗ 12-17
{18}
16 км н/о +5.4 +0.7 72 -1 -1 по сезону 1006.1 996.0 +7.6 11
19 17.12 СЗ 10-15
{18}
16 км в посл. час ливневой дождь 3/3 750 м
[Cu Sc]
+5.5 +0.4 70 -0 -0 тепло 1007.6 997.5
20 17.12 СЗ 8
{15}
14 км 6/6 750 м
[Cu Sc]
+5.5 +0.5 70 0 0 тепло 1009.1 999.0
21 17.12 СЗ 9
{14}
18 км 1/1 750 м
[Cu Sc]
+5.4 -0.1 68 -0 -0 по сезону 1010.1 1000.0
22 17.12 З 8
{13}
18 км 1/1 930 м
[Cu med, cong]
+5.4 +0.8 72 0 0 тепло 1011.3 1001.1
23 17.12 З 8
{13}
17 км 1/1 960 м
[Sc]
+5.3 +0.4 71 -0 -0 тепло 1012.4 1002.3
00 18.12 З 8 20 км 3/3 750 м
[Cu Sc]
+5.4 +1.3 75 -0 -0 по сезону 1013.1 1003.0 0.0
01 18.12 З 7
{13}
18 км в посл. час ливневой дождь 5/5 750 м
[Cu Sc]
+5.4 +2.1 79 0 0 тепло 1014.1 1003.9
02 18.12 З 7 16 км 3/3 750 м
[Cu Sc]
+5.2 +0.6 72 0 0 тепло 1015.5 1005.4
03 18.12 З 6 18 км {ливн. осадки} 3/3 900 м
[Sc]
+5.3 +1.0 74 +1 +1 по сезону 1016.1 1005.9
04 18.12 З 6 19 км в посл. час ливневой дождь 1/1 840 м
[Cu med, cong]
+5.3 +1.5 76 +1 +1 тепло 1017.0 1006.8
05 18.12 З 5 17 км 9/9 540 м
[Cb cap]
+5.8 +1.7 75 +2 +2 тепло 1017.9 1007.7
06 18.12 З 5 10 км слабый ливневой дождь 9/9 500 м
[Cb cap]
+6.1 +3.0 80 +2 +2 по сезону 1018.5 1008.3 +4.9 0.2
07 18.12 З 6 20 км в посл. час ливневой дождь 10/1 600 м
[Cu hum Ac As]
+6.4 +3.1 79 +2 +2 тепло 1018.8 1008.7
08 18.12 З 7 24 км 10/10 700 м
[Sc]
+6.6 +3.6 81 +2 +2 тепло 1019.4 1009.3
09 18.12 ЮЗ 6 22 км в посл. час дождь {ливн. осадки} 9/3 630 м
[Sc Ac As]
+6.6 +4.6 87 +2 +2 по сезону 1019.2 1009.1

 

Местоположение метеостанции Lerwick (Великобритания): широта 60.13 долгота -1.18 высота над уровнем моря 84 м.

В архиве по умолчанию представлена погода в Lerwick за последнюю неделю. Архивные данные за месяц целиком и за предыдущие месяцы, начиная с января 2011 года, Вы можете получить, выбрав интересующий диапазон дат из раскрывающегося списка и нажав кнопку "Ввод!".

Внимание! Время в таблицах - всемирное. Для получения местного времени необходимо прибавить поправку, которая в Lerwick равна 0 ч.

Смотрите также архив погоды в соседних городах и на ближайших метеорологических станциях:

Погода в Foula (Великобритания) (49 км)
Погода в Baltasound (Великобритания) (71 км)
Погода в Fair Isle (Великобритания) (71 км)
Погода в Kirkwall (Великобритания) (163 км)
Погода в Sule Skerry (Великобритания) (216 км)
Погода в Wick (Великобритания) (216 км)
Погода в Gullfaks C (Норвегия) (222 км)
Погода в Altnaharra (Великобритания) (277 км)
Погода в Lossiemouth (Великобритания) (295 км)
Погода в Tain Range (Великобритания) (303 км)

Пояснения к столбцам:

Ветер - указаны скорость ветра в м/с - средняя за 10 мин, порывы в срок и между сроками (в фигурных скобках) и направление, откуда дует ветер: С - северный, СВ - северо-восточный, В - восточный, ЮВ - юго-восточный, Ю - южный, ЮЗ - юго-западный, З - западный, СЗ - северо-западный.
Видимость - горизонтальная дальность видимости в метрах или километрах. При видимости от 1 до 10 км при отсутствии осадков обычно наблюдается дымка, при ухудшении видимости до 1 км и менее - туман. В сухую погоду видимость может ухудшаться дымом, пылью или мглою.
Явления - указаны атмосферные явления, наблюдавшиеся в срок или в последний час перед сроком; фигурными скобками обозначены явления, наблюдавшиеся между сроками (за 1-3 часа до срока); квадратными скобками обозначены град или гололедные отложения с указанием их диаметра в мм.
Облачность - указаны через наклонную черту общая и нижняя облачность в баллах и высота нижней границы облаков в метрах; квадратными скобками обозначены формы облаков: Ci - перистые, Cs - перисто-слоистые, Cc - перисто-кучевые, Ac - высококучевые, As - высокослоистые, Sc - слоисто-кучевые, Ns - слоисто-дождевые, Cu - кучевые, Cb - кучево-дождевые. Подробнее классификацию облаков см. в Атласе облаков (PDF).
T - Температура воздуха - температура, измеренная на высоте 2 м над землей.
Td - Температура точки росы - температура, при понижении до которой содержащийся в воздухе водяной пар достигнет насыщения.
f - Относительная влажность воздуха - влажноcть воздуха, измеренная на высоте 2 м над землей.
Te - Эффективная температура - температура, которую ощущает одетый по сезону человек в тени. Характеристика душности погоды. При расчете учитывается влияние влажности воздуха и скорости ветра на теплоощущения человека.
Tes - Эффективная температура на солнце - температура, которую ощущает человек, с поправкой на солнечный нагрев. Характеристика знойности погоды. Зависит от высоты солнца над горизонтом, облачности и скорости ветра. Ночью, в пасмурную погоду, а также при ветре 12 м/с и более поправка равна нулю.
P - Атмосферное давление - приведенное к уровню моря атмосферное давление.
Po - Атмосферное давление - измеренное на уровне метеостанции атмосферное давление.
Tmin - Минимальная температура - минимум температуры воздуха на высоте 2 м над землей.
Tmax - Максимальная температура - максимум температуры воздуха на высоте 2 м над землей.
R - Количество осадков - Количество выпавших осадков за период времени, мм. При наведении курсора мыши на число - период времени, за который выпало указанное количество осадков.
R24 - Количество осадков - Количество выпавших осадков за 24 часа, мм.
S - Снежный покров - Высота снежного покрова, см. При наведении курсора мыши на число - состояние снежного покрова и степень покрытия местности в баллах.